This demonstration page uses our WeatherBlox Daily Observations layout. Learn more.

Left ArrowRight Arrow

Hourly Observations for August 12, 2020

Temp ( °F °C ) Dew Point ( °F °C ) Humidity (%) Winds ( mph kmh ) Pressure ( in mb ) Visibility ( mi km ) Precip ( " mm )
12:15 am 00:15 Clear 66 19 66 19 100 100 Calm 30.03 1017 10 16.0934 N/A
12:35 am 00:35 Clear 66 19 66 19 100 100 Calm 30.03 1017 10 16.0934 N/A
12:55 am 00:55 Clear 66 19 66 19 100 100 Calm 30.04 1017 10 16.0934 N/A
1:15 am 01:15 Clear 64 18 64 18 100 100 Calm 30.03 1017 10 16.0934 N/A
1:35 am 01:35 Clear 64 18 64 18 100 100 Calm 30.03 1017 7 11.26538 N/A
1:55 am 01:55 Clear 64 18 64 18 100 100 Calm 30.03 1017 5 8.0467 N/A
2:15 am 02:15 Mostly Cloudy 64 18 64 18 100 100 Calm 30.03 1017 1 1.60934 N/A
2:35 am 02:35 Mostly Cloudy 64 18 64 18 100 100 Calm 30.03 1017 0.75 1.207005 N/A
2:55 am 02:55 Mostly Cloudy 63 17 63 17 100 100 Calm 30.04 1017 1.25 2.011675 N/A
3:15 am 03:15 Clear 63 17 63 17 100 100 Calm 30.04 1017 3 4.82802 N/A
3:35 am 03:35 Mostly Cloudy 63 17 63 17 100 100 Calm 30.04 1017 1.25 2.011675 N/A
3:55 am 03:55 Mostly Cloudy 63 17 63 17 100 100 Calm 30.04 1017 1 1.60934 N/A
4:15 am 04:15 Clear 63 17 63 17 100 100 Calm 30.05 1018 5 8.0467 N/A
4:35 am 04:35 Clear 63 17 63 17 100 100 Calm 30.05 1018 3 4.82802 N/A
4:55 am 04:55 Clear 64 18 64 18 100 100 Calm 30.04 1017 10 16.0934 N/A
5:15 am 05:15 Partly Cloudy 63 17 63 17 100 100 Calm 30.06 1018 7 11.26538 N/A
5:35 am 05:35 Mostly Cloudy 64 18 64 18 100 100 Calm 30.05 1018 10 16.0934 N/A
5:55 am 05:55 Mostly Cloudy 63 17 63 17 100 100 N 3 6 30.06 1018 7 11.26538 N/A
6:15 am 06:15 Partly Cloudy 63 17 63 17 100 100 Calm 30.06 1018 7 11.26538 N/A
6:35 am 06:35 Mostly Cloudy 64 18 64 18 100 100 NNE 3 6 30.05 1018 7 11.26538 N/A
6:55 am 06:55 Cloudy 63 17 63 17 100 100 NE 3 6 30.07 1018 7 11.26538 N/A
7:04 am 07:04 Cloudy 63 17 63 17 100 100 Calm 30.07 1018 7 11.26538 N/A
7:55 am 07:55 Mostly Cloudy 66 19 66 19 100 100 Calm 30.07 1018 10 16.0934 N/A
8:15 am 08:15 Cloudy 66 19 66 19 100 100 N 3 6 30.08 1019 10 16.0934 N/A
8:35 am 08:35 Mostly Cloudy 70 21 70 21 100 100 Calm 30.08 1018 10 16.0934 N/A
8:55 am 08:55 Sunny 70 21 70 21 100 100 NNE 3 6 30.08 1018 10 16.0934 N/A
9:15 am 09:15 Partly Cloudy 70 21 70 21 100 100 NNE 3 6 30.09 1019 10 16.0934 N/A
9:35 am 09:35 Cloudy 70 21 70 21 100 100 ENE 3 6 30.08 1018 10 16.0934 N/A
9:55 am 09:55 Cloudy 72 22 72 22 100 100 Calm 30.08 1019 10 16.0934 N/A
10:15 am 10:15 Mostly Cloudy 73 23 73 23 100 100 E 3 6 30.07 1018 10 16.0934 N/A
10:35 am 10:35 Partly Cloudy 73 23 73 23 100 100 ENE 3 6 30.07 1018 10 16.0934 N/A
10:55 am 10:55 Sunny 75 24 73 23 94 94 E 5 7 30.07 1018 10 16.0934 N/A
11:15 am 11:15 Sunny 75 24 75 24 100 100 E 3 6 30.07 1018 10 16.0934 N/A
11:35 am 11:35 Sunny 75 24 75 24 100 100 E 6 9 30.07 1018 10 16.0934 N/A
11:55 am 11:55 Sunny 75 24 75 24 100 100 E 6 9 30.07 1018 10 16.0934 N/A
12:15 pm 12:15 Sunny 77 25 75 24 94 94 E 5 7 30.06 1018 10 16.0934 N/A
12:35 pm 12:35 Partly Cloudy 79 26 75 24 89 89 E 6 9 30.06 1018 10 16.0934 N/A
12:55 pm 12:55 Mostly Cloudy 79 26 75 24 89 89 E 5 7 30.06 1018 10 16.0934 N/A
1:15 pm 13:15 Partly Cloudy 79 26 75 24 89 89 Calm 30.06 1018 10 16.0934 N/A
1:35 pm 13:35 Partly Cloudy 79 26 75 24 89 89 Calm 30.05 1018 10 16.0934 N/A
1:55 pm 13:55 Mostly Cloudy 79 26 75 24 89 89 ESE 3 6 30.06 1018 10 16.0934 N/A
2:15 pm 14:15 Cloudy 79 26 77 25 94 94 Calm 30.05 1018 10 16.0934 N/A
2:35 pm 14:35 Mostly Cloudy 79 26 75 24 89 89 Calm 30.05 1018 10 16.0934 N/A
2:55 pm 14:55 Cloudy 79 26 75 24 89 89 ENE 6 9 30.05 1018 10 16.0934 N/A
3:15 pm 15:15 Mostly Cloudy 79 26 75 24 89 89 E 5 7 30.05 1018 10 16.0934 N/A
3:35 pm 15:35 Partly Cloudy 81 27 75 24 84 84 ESE 3 6 30.05 1017 10 16.0934 N/A
3:55 pm 15:55 Sunny 81 27 75 24 84 84 E 5 7 30.04 1017 10 16.0934 N/A
4:15 pm 16:15 Partly Cloudy 82 28 75 24 79 79 Calm 30.03 1017 10 16.0934 N/A
4:35 pm 16:35 Partly Cloudy 82 28 75 24 79 79 ESE 5 7 30.02 1017 10 16.0934 N/A
4:55 pm 16:55 Sunny 81 27 73 23 79 79 E 5 7 30.03 1017 10 16.0934 N/A
5:15 pm 17:15 Partly Cloudy 82 28 73 23 74 74 Calm 30.02 1017 10 16.0934 N/A
5:35 pm 17:35 Mostly Cloudy 81 27 73 23 79 79 Calm 30.03 1017 10 16.0934 N/A
5:55 pm 17:55 Cloudy 81 27 75 24 84 84 E 5 7 30.03 1017 10 16.0934 N/A
6:15 pm 18:15 Partly Cloudy 81 27 75 24 84 84 NE 6 9 30.03 1017 10 16.0934 N/A
6:35 pm 18:35 Sunny 81 27 73 23 79 79 ENE 5 7 30.02 1016 10 16.0934 N/A
6:55 pm 18:55 Sunny 81 27 75 24 84 84 E 3 6 30.02 1016 10 16.0934 N/A
7:15 pm 19:15 Mostly Cloudy 79 26 75 24 89 89 E 6 9 30.02 1017 10 16.0934 N/A
7:35 pm 19:35 Partly Cloudy 79 26 75 24 89 89 E 5 7 30.02 1017 10 16.0934 N/A
7:55 pm 19:55 Sunny 75 24 75 24 100 100 ENE 5 7 30.03 1017 10 16.0934 N/A
8:15 pm 20:15 Partly Cloudy 73 23 73 23 100 100 ENE 5 7 30.03 1017 10 16.0934 N/A
8:35 pm 20:35 Partly Cloudy 73 23 73 23 100 100 NE 5 7 30.03 1017 10 16.0934 N/A
8:55 pm 20:55 Clear 72 22 72 22 100 100 NE 5 7 30.04 1017 10 16.0934 N/A
9:15 pm 21:15 Clear 68 20 68 20 100 100 NE 5 7 30.05 1018 10 16.0934 N/A
9:35 pm 21:35 Clear 70 21 70 21 100 100 ENE 6 9 30.05 1017 10 16.0934 N/A
9:55 pm 21:55 Clear 68 20 68 20 100 100 ENE 3 6 30.06 1018 10 16.0934 N/A
10:15 pm 22:15 Clear 68 20 68 20 100 100 E 5 7 30.06 1018 10 16.0934 N/A
10:35 pm 22:35 Clear 68 20 68 20 100 100 NNE 5 7 30.07 1018 10 16.0934 N/A
10:55 pm 22:55 Clear 66 19 66 19 100 100 NNE 3 6 30.07 1018 10 16.0934 N/A
11:15 pm 23:15 Clear 66 19 66 19 100 100 Calm 30.07 1018 10 16.0934 N/A
11:35 pm 23:35 Clear 66 19 66 19 100 100 Calm 30.07 1018 10 16.0934 N/A
11:55 pm 23:55 Clear 66 19 66 19 100 100 Calm 30.07 1018 10 16.0934 N/A

Powered by AerisWeather